C/2011 O1 ( LINEAR )

Japanese version
Home page
Updated on March 24, 2012

---------------------------------------------------------------------

* Profile

Discovery Date July 31, 2011
Magnitude 17.6 mag
Discoverer Lincoln Laboratory Near-Earth Asteroid Research project

* Pictures

* Orbital Elements

Epoch 2012 Aug. 21.0 TT = JDT 2456160.5
T 2012 Aug. 18.47042 TT                                 MPC
q   3.8906598            (2000.0)            P               Q
z  +0.0008285      Peri.  232.38232     +0.18297329     +0.14503685
 +/-0.0000091      Node    89.81672     -0.25418865     +0.96240623
e   0.9967767      Incl.   76.49893     -0.94968885     -0.22964876
From 78 observations 2011 July 31-2012 Mar. 19, mean residual 0".4.

* Finding Charts

* Magnitudes Graph

        m1 = 6.5 + 5 log d + 10.0 log r

---------------------------------------------------------------------

The orbital elements are published on M.P.E.C. 2012-F59.
The charts are made with StellaNavigator Ver.8 (AstroArts).
The magnitudes graphs are made with Comet for Windows.

---------------------------------------------------------------------

Copyright(C) Seiichi Yoshida (comet@aerith.net). All rights reserved.